Retour au catalogue

STARLINK-34210

ActifCommunicationsSSO
NORAD 65653·PAYLOAD·🇺🇸 United States

Lancé Sep 19, 2025 depuis Vandenberg Space Force Base

Loading…

Prochains Passages (prochaines 24 heures)

TLE

FraisSource: CelesTrak SupGP

Époque: Sep 15, 2026, 03:25 UTC

1 65653C 25211B   26258.14284722 -.00037701  00000+0 -11702-2 0  2589
2 65653  97.2833 298.4433 0000940  95.1201 203.9539 15.33462505    19

Suivez STARLINK-34210 en temps réel avec AllMySat

Download on the App Store